Weather History for Evansville, IN

Change the Weather History Date:

Tuesday, April 9, 2013

  Actual Average Record
Temperature  
Mean Temperature 70 °F 54 °F  
Max Temperature 82 °F 66 °F 88 °F (1967)
Min Temperature 58 °F 42 °F 25 °F (1997)
Degree Days  
Heating Degree Days 0 12  
Month to date heating degree days 113 115  
Since 1 July heating degree days 4257 4281  
Cooling Degree Days 5 1  
Month to date cooling degree days 8 1  
Year to date cooling degree days 8 4  
Growing Degree Days 20 (Base 50)    
Moisture  
Dew Point 57 °F    
Average Humidity 63    
Maximum Humidity 80    
Minimum Humidity 45    
Precipitation  
Precipitation 0.00 in 0.13 in 1.72 in (1993)
Month to date precipitation T 1.20  
Year to date precipitation 13.61 11.71  
Snow  
Snow 0.00 in 0.00 in T in (2003)
Month to date snowfall 0.0 0.1  
Since 1 July snowfall 12.3 11.8  
Snow Depth 0.00 in    
Sea Level Pressure  
Sea Level Pressure 29.96 in    
Wind  
Wind Speed 11 mph (South)    
Max Wind Speed 23 mph    
Max Gust Speed 31 mph    
Visibility 10 miles    
Events      
T = Trace of Precipitation, MM = Missing Value Source: NWS Daily Summary

Daily Weather History Graph

Daily Weather History Graph

Search for Another Location

Airport:

Trip Planner

Search our weather history database for the weather conditions in past years. The results will help you decide how hot, cold, wet, or windy it might be!

Date:

Astronomy

Apr. 09, 2013 Rise Set
Actual Time 6:22 AM CDT 7:20 PM CDT
Civil Twilight 5:56 AM CDT 7:47 PM CDT
Nautical Twilight 5:24 AM CDT 8:19 PM CDT
Astronomical Twilight 4:51 AM CDT 8:52 PM CDT
Moon 5:44 AM CDT (4/9) 6:56 PM CDT (4/9)
Length of Visible Light 13h 51m
Length of Day
12h 57m
Waning Crescent, 1% of the Moon is Illuminated
Apr 9
Waning Crescent
Apr 10
New
Apr 18
First Quarter
Apr 25
Full
May 2
Last Quarter

Hourly Weather History & Observations

Time (CDT) Temp. Heat Index Dew Point Humidity Pressure Visibility Wind Dir Wind Speed Gust Speed Precip Events Conditions
12:54 AM 60.1 °F - 53.1 °F 78% 29.96 in 10.0 mi ESE 3.5 mph - N/A   Scattered Clouds
1:54 AM 59.0 °F - 54.0 °F 83% 29.96 in 10.0 mi ENE 3.5 mph - N/A   Mostly Cloudy
2:54 AM 59.0 °F - 52.0 °F 78% 29.95 in 10.0 mi Calm Calm - N/A   Mostly Cloudy
3:54 AM 62.1 °F - 52.0 °F 70% 29.94 in 10.0 mi SE 6.9 mph - N/A   Mostly Cloudy
4:54 AM 63.0 °F - 52.0 °F 67% 29.95 in 10.0 mi SE 5.8 mph - N/A   Overcast
5:54 AM 63.0 °F - 53.1 °F 70% 29.97 in 10.0 mi SSE 5.8 mph - N/A   Partly Cloudy
6:54 AM 64.0 °F - 54.0 °F 70% 29.99 in 10.0 mi SSE 6.9 mph - N/A   Partly Cloudy
7:54 AM 66.0 °F - 55.0 °F 68% 30.01 in 10.0 mi South 8.1 mph - N/A   Partly Cloudy
8:54 AM 69.1 °F - 57.0 °F 65% 30.01 in 10.0 mi South 9.2 mph - N/A   Clear
9:54 AM 72.0 °F - 57.9 °F 61% 30.01 in 10.0 mi SSW 18.4 mph 24.2 mph N/A   Clear
10:54 AM 75.0 °F - 59.0 °F 57% 30.02 in 10.0 mi South 16.1 mph 25.3 mph N/A   Scattered Clouds
11:54 AM 73.0 °F - 59.0 °F 61% 30.01 in 10.0 mi SSW 13.8 mph - N/A   Mostly Cloudy
12:54 PM 77.0 °F - 59.0 °F 54% 29.98 in 10.0 mi SW 19.6 mph 31.1 mph N/A   Mostly Cloudy
1:54 PM 79.0 °F - 57.9 °F 48% 29.96 in 10.0 mi SSW 18.4 mph 24.2 mph N/A   Partly Cloudy
2:54 PM 81.0 °F 81.1 °F 57.9 °F 45% 29.93 in 10.0 mi SSW 18.4 mph - N/A   Partly Cloudy
3:54 PM 81.0 °F 81.3 °F 59.0 °F 47% 29.92 in 10.0 mi SSW 19.6 mph 26.5 mph N/A   Partly Cloudy
4:54 PM 80.1 °F 80.6 °F 57.9 °F 47% 29.91 in 10.0 mi South 18.4 mph 23.0 mph N/A   Partly Cloudy
5:54 PM 79.0 °F - 57.9 °F 48% 29.92 in 10.0 mi SSW 13.8 mph 20.7 mph N/A   Clear
6:54 PM 77.0 °F - 57.9 °F 52% 29.93 in 10.0 mi South 10.4 mph - N/A   Partly Cloudy
7:54 PM 75.9 °F - 57.9 °F 54% 29.93 in 10.0 mi South 9.2 mph 17.3 mph N/A   Overcast
8:54 PM 73.9 °F - 59.0 °F 59% 29.94 in 10.0 mi SSE 9.2 mph - N/A   Overcast
9:54 PM 73.0 °F - 59.0 °F 61% 29.94 in 10.0 mi South 11.5 mph - N/A   Mostly Cloudy
10:54 PM 72.0 °F - 59.0 °F 64% 29.94 in 10.0 mi South 8.1 mph - N/A   Clear
11:54 PM 70.0 °F - 59.0 °F 68% 29.91 in 10.0 mi SSE 6.9 mph - N/A   Partly Cloudy